Main page


Airports :

Bojnourd, Iran

Bojnord Airport

latitude: 37-28N, longitude: 057-20E, elevation: 1074 m

Current weather observation

The report was made 1 hour and 1 minutes ago, at 09:00 UTC
Calm wind
Temperature 6°C
Humidity 81%
Pressure 1016 hPa
Visibility 10 km or more
Scattered clouds at a height of 1000 ft
Overcast at a height of 8000 ft

METAR: OIMN 180900Z 00000KT 9999 SCT010 OVC080 06/03 Q1016

Time: 13:31 (10:01 UTC)

TAF: missing

Weather observations and forecasts of more than 4000 airports (METAR and TAF reports).

The available stations are represented by yellow and red dots on the map.

Hover mouse over dot to see the name of the station.

Then click to see weather observations and forecasts.

To change the map : click on the green buttons with a black cross to zoom in, on the green button with a dash to zoom out, or on the green arrows for adjacent maps.